Location: Camaret
(48.2753°N, 4.5961°W)
Time: 23:40:56
(UTC+00:00)

Cosmos 1939 Rocket - Pass Details

Date: 29 October 2020
Orbit: 532 x 584 km, 97.4° (Epoch: 26 November)

Event Time Altitude Azimuth Distance (km) Brightness Sun altitude
Rises 18:30:27 0° 171° (S) 2,725 6.3 -14.9°
Reaches altitude 10° 18:32:36 10° 174° (S) 1,827 5.5 -15.3°
Maximum altitude 18:36:32 70° 258° (WSW) 587 3.1 -15.9°
Drops below altitude 10° 18:40:27 10° 343° (NNW) 1,815 5.6 -16.6°
Sets 18:42:34 0° 346° (NNW) 2,706 6.5 -16.9°
